Regional Weather Roundup
Issued by NWS

Home | Current Version | Previous Version | Text Only | Print | Product List | Glossary Off
Versions: 1 2 3 4 5 6 7 8 9 10 11 12 13 14 15 16 17 18 19 20 21 22 23 24 25 26 27 28 29 30 31 32 33 34 35 36 37 38 39 40 41 42 43 44 45 46 47 48 49 50

000
ASUS43 KFSD 230510
RWRSD

WEATHER ROUNDUP FOR SOUTH DAKOTA
NATIONAL WEATHER SERVICE SIOUX FALLS SD
1200 AM CDT MON APR 23 2018

NOTE: "FAIR" INDICATES FEW OR NO CLOUDS BELOW 12,000 FEET WITH NO
SIGNIFICANT WEATHER AND/OR OBSTRUCTIONS TO VISIBILITY.


SDZ001>005-009-010-012>017-230600-
NORTHWEST AND NORTH CENTRAL SOUTH DAKOTA

CITY           SKY/WX    TMP DP  RH WIND       PRES   REMARKS
BUFFALO          N/A     50  32  50 NE13      30.04S
FAITH            N/A     47  40  76 SE15      30.10S
MOBRIDGE       CLEAR     46  38  73 SE8       30.11S
$$

SDZ012>016-024>037-041>051-057-063-072>074-230600-
SOUTHWEST AND SOUTH CENTRAL SOUTH DAKOTA

CITY           SKY/WX    TMP DP  RH WIND       PRES   REMARKS
RAPID CTY ARPT CLEAR     45  37  73 CALM      30.10R
PIERRE         CLEAR     47  38  71 SE9       30.13F
CUSTER         CLEAR     43  31  62 CALM      30.14F
ELLSWORTH AFB  CLEAR    N/A N/A N/A CALM      30.10S
PHILIP         CLEAR     49  38  65 VRB6      30.11S
PINE RIDGE     CLEAR     50  39  66 S18       30.11S
SPEARFISH      FAIR      50  37  62 E7        30.09F
WINNER         FAIR      46  36  68 S10       30.16F
$$

SDZ004>011-016>023-039-040-230600-
NORTHEAST SOUTH DAKOTA

CITY           SKY/WX    TMP DP  RH WIND       PRES   REMARKS
ABERDEEN       CLEAR     42  37  82 S12       30.18S
WATERTOWN      CLEAR     42  37  82 S7        30.20S
BROOKINGS      CLEAR     42  36  79 E8        30.21F
SISSETON         N/A     43  36  76 SE7       30.19F
$$

SDZ017-020-022-023-036>040-048>070-230600-
SOUTHEAST SOUTH DAKOTA

CITY           SKY/WX    TMP DP  RH WIND       PRES   REMARKS
SIOUX FALLS    CLEAR     45  37  73 E5        30.21S
HURON          CLEAR     46  39  76 SE8       30.18F
CHAMBERLAIN    CLEAR     46  40  81 SE3       30.17S
MITCHELL       CLEAR     46  40  79 SE6       30.19F
YANKTON        CLEAR     46  39  76 E6        30.20S
$$

ABBREVIATIONS USED IN REMARKS
   TC - TEMPERATURE IN CELSIUS
  WCI - WIND CHILL INDEX
   HX - HEAT INDEX
  VSB - VISIBILITY





USA.gov is the U.S. government's official web portal to all federal, state and local government web resources and services.